Weather in Maksimovo

Russia / Vladimir Oblast     55°29′45″N   41°24′59″E
В апреле 2022 года жителям России запретили посещать сайт meteo.paraplan.net по решению Генеральной прокуратуры. Аудитория сайта уменьшилась в 10 раз. Владельцы сайта не видят смысла в поддержке погодного сервера в таких условиях. Сайт будет закрыт в октябре.
temp.,
°C
wind,
m/s
gust,
m/s
humid.,
%
clouds,
%
prec.,
mm/h
press.,
hPa
HPBL,
m
4 october, tue
tue400:00+10sse614792 0.0 1011787
03:00+9sse514845 0.0 1011563
06:00+9sse514825 0.0 1012559
09:00+11sse6147149 0.0 1013761
12:00+15sse6126096 0.0 10131262
15:00+15sse61161100 0.0 10131376
18:00+13sse51173100 0.1 1014794
21:00+12sse6138399 2.1 1013918
5 october, wed
wed500:00+10s4109172 0.3 1013549
03:00+9s41091100 0.3 1013587
06:00+9s4985100 0.3 1013765
09:00+9ssw498577 0.5 1013886
12:00+9s4983100 0.3 10141274
15:00+8ssw4889100 0.8 10141154
18:00+7sw379099 0.6 1015546
21:00+6wsw3691100 0.9 1015639
6 october, thu
thu600:00+6wsw3687100 0.3 1015546
03:00+5w378898 0.5 1015703
06:00+5w489289 0.1 1016463
09:00+6w378791 0.1 1017602
12:00+9wnw457291 0.1 10171003
15:00+9wnw3567100 0.1 10181168
18:00+7wsw117521 0.0 101918
21:00+5ssw37890 0.0 1018129
7 october, fri
fri700:00+6ssw3990100 0.0 1017281
03:00+7ssw4119898 0.0 1015344
06:00+9wsw51195100 0.0 1015432
09:00+10w41092100 0.0 1016540
12:00+13wnw596636 0.0 10181172
15:00+11wnw51071100 0.0 10201244
18:00+11w4106738 0.0 1021653
21:00+8w412860 0.0 1023407
8 october, sat
sat800:00+7w311940 0.0 1024283
03:00+6wsw38960 0.0 1024189
06:00+5wsw37962 0.0 1025159
09:00+9wsw48825 0.0 1025307
12:00+13sw47635 0.0 1024779
15:00+14sw46595 0.0 1023901
18:00+9ssw398230 0.0 1022203
21:00+9ssw4128365 0.0 1022325